N0ZRD-10 Weather Reports


time (UTC)temp
C
wind
direction
speed
KPH
gust
KPH
rain 1hr
cm
rain 24hr
cm
rain mn
cm
humidity
%
barometer
mb
20260906171132 25 273 1.6 6.4 0.00 0.00 0.00 54
20260906155124 22 233 0.0 3.2 0.00 0.00 0.00 61
20260906154525 22 165 0.0 4.8 0.00 0.00 0.00 62
20260906154121 22 165 0.0 4.8 0.00 0.00 0.00 62
20260906153122 22 224 0.0 3.2 0.00 0.00 0.00 63
20260906145115 20 194 0.0 1.6 0.00 0.00 0.00 71
20260906142111 18 191 0.0 4.8 0.00 0.00 0.00 78
20260906141110 18 158 0.0 1.6 0.00 0.00 0.00 81
20260906133133 16 117 0.0 0.0 0.00 0.00 0.00 87
20260906133101 16 117 0.0 0.0 0.00 0.00 0.00 87
20260906122053 13 356 0.0 0.0 0.00 0.00 0.00 90
20260906114048 13 356 0.0 0.0 0.00 0.00 0.00 90
20260906111044 13 356 0.0 0.0 0.00 0.00 0.00 90
20260906110043 13 356 0.0 0.0 0.00 0.00 0.00 90
20260906105041 13 356 0.0 0.0 0.00 0.00 0.00 89
20260906100130 13 356 0.0 0.0 0.00 0.00 0.00 89
20260906100036 13 356 0.0 0.0 0.00 0.00 0.00 89
20260906095035 13 356 0.0 0.0 0.00 0.00 0.00 88
20260906094033 13 356 0.0 0.0 0.00 0.00 0.00 89
20260906092415 13 356 0.0 0.0 0.00 0.00 0.00 89
20260906092229 13 356 0.0 0.0 0.00 0.00 0.00 89
20260906092109 13 356 0.0 0.0 0.00 0.00 0.00 89
20260906092030 13 356 0.0 0.0 0.00 0.00 0.00 89
20260906090027 13 356 0.0 0.0 0.00 0.00 0.00 88
20260906084023 13 356 0.0 0.0 0.00 0.00 0.00 88
20260906083022 13 356 0.0 0.0 0.00 0.00 0.00 88
20260906082021 13 356 0.0 0.0 0.00 0.00 0.00 87
20260906080019 13 356 0.0 0.0 0.00 0.00 0.00 87
20260906073015 13 356 0.0 0.0 0.00 0.00 0.00 86
20260906072014 13 356 0.0 0.0 0.00 0.00 0.00 86
20260906065007 14 356 0.0 0.0 0.00 0.00 0.00 84
20260906064008 14 356 0.0 0.0 0.00 0.00 0.00 85
20260906051959 16 111 0.0 1.6 0.00 0.00 0.00 82
20260906044036 16 94 0.0 0.0 0.00 0.00 0.00 81
20260906043953 16 94 0.0 0.0 0.00 0.00 0.00 81
20260906040950 16 94 0.0 0.0 0.00 0.00 0.00 81
20260906032947 16 94 0.0 0.0 0.00 0.00 0.00 79
20260906023940 16 94 0.0 0.0 0.00 0.00 0.00 78
20260906022939 16 94 0.0 0.0 0.00 0.00 0.00 78
20260906014930 17 94 0.0 0.0 0.00 0.00 0.00 77
20260906013927 17 94 0.0 0.0 0.00 0.00 0.00 77
20260906011921 17 117 0.0 3.2 0.00 0.00 0.00 77
20260906010919 17 51 0.0 1.6 0.00 0.00 0.00 76
20260906004911 18 153 1.6 6.4 0.00 0.00 0.00 76
20260906002909 18 158 1.6 3.2 0.00 0.13 0.00 75
20260906001247 18 127 1.6 3.2 0.00 0.13 0.00 73
20260906000907 18 127 1.6 3.2 0.00 0.13 0.00 73
20260905235906 19 75 0.0 4.8 0.00 0.13 0.00 73
20260905234904 19 101 0.0 6.4 0.00 0.13 0.00 72
20260905232938 19 49 0.0 4.8 0.00 0.13 0.00 72
20260905232901 19 49 0.0 4.8 0.00 0.13 0.00 72
20260905231859 19 142 1.6 4.8 0.00 0.13 0.00 71
20260905230858 20 58 3.2 4.8 0.00 0.13 0.00 70
20260905213843 20 150 0.0 3.2 0.00 0.13 0.00 66
20260905212841 21 301 1.6 3.2 0.00 0.13 0.00 65
20260905205839 21 198 1.6 1.6 0.00 0.13 0.00 65
20260905204838 20 65 1.6 9.7 0.00 0.13 0.00 65
20260905201834 21 124 3.2 4.8 0.00 0.13 0.00 64
20260905194830 21 246 0.0 0.0 0.00 0.13 0.00 64
20260905191827 21 66 0.0 4.8 0.00 0.13 0.00 65
20260905190827 21 169 1.6 3.2 0.00 0.13 0.00 65
20260905185825 21 108 0.0 1.6 0.00 0.13 0.00 63
20260905184824 21 183 0.0 3.2 0.00 0.13 0.00 66
20260905182820 21 173 0.0 1.6 0.00 0.13 0.00 65
20260905174816 21 132 0.0 3.2 0.00 0.13 0.00 66